Weather History for Terrell, TX

Change the Weather History Date:

Thursday, October 10, 2013

  Actual Average (KDFW) Record (KDFW)
Temperature  
Mean Temperature 70 °F 69 °F  
Max Temperature 82 °F 80 °F 95 °F (1975)
Min Temperature 59 °F 59 °F 39 °F (2000)
Degree Days  
Heating Degree Days 0 1  
Month to date heating degree days 10  
Since 1 July heating degree days 16  
Cooling Degree Days 6 6  
Month to date cooling degree days 68  
Year to date cooling degree days 2645  
Growing Degree Days 20 (Base 50)    
Moisture  
Dew Point 57 °F    
Average Humidity 65    
Maximum Humidity 96    
Minimum Humidity 34    
Precipitation  
Precipitation 0.00 in 0.12 in 1.64 in (1919)
Month to date precipitation 1.09  
Year to date precipitation 27.75  
Snow  
Snow 0.00 in 0.00 in 0.00 in ()
Month to date snowfall 0.0  
Since 1 July snowfall 0.0  
Since 1 September snowfall 0.0  
Snow Depth -    
Sea Level Pressure  
Sea Level Pressure 29.99 in    
Wind  
Wind Speed 4 mph (SE)    
Max Wind Speed 13 mph    
Max Gust Speed 17 mph    
Visibility 10 miles    
Events      
T = Trace of Precipitation, MM = Missing Value Source: NWS Daily Summary

Daily Weather History Graph

Daily Weather History Graph

Search for Another Location

Airport:

Trip Planner

Search our weather history database for the weather conditions in past years. The results will help you decide how hot, cold, wet, or windy it might be!

Date:

Astronomy

Oct. 10, 2013 Rise Set
Actual Time 7:25 AM CDT 6:57 PM CDT
Civil Twilight 7:00 AM CDT 7:22 PM CDT
Nautical Twilight 6:32 AM CDT 7:51 PM CDT
Astronomical Twilight 6:03 AM CDT 8:19 PM CDT
Moon 1:06 PM CDT (10/10) 11:48 PM CDT (10/10)
Length of Visible Light 12h 21m
Length of Day
11h 32m
Waxing Crescent, 36% of the Moon is Illuminated
Oct 10
Waxing Crescent
Oct 11
First Quarter
Oct 18
Full
Oct 26
Last Quarter
Nov 3
New

Hourly Weather History & Observations

Time (CDT) Temp. Heat Index Dew Point Humidity Pressure Visibility Wind Dir Wind Speed Gust Speed Precip Events Conditions
12:53 AM 63.0 °F - 57.0 °F 81% 30.02 in 10.0 mi Calm Calm - N/A   Clear
1:53 AM 63.0 °F - 57.0 °F 81% 30.03 in 10.0 mi SE 3.5 mph - N/A   Clear
2:53 AM 63.0 °F - 57.0 °F 81% 30.04 in 10.0 mi Calm Calm - N/A   Clear
3:53 AM 62.1 °F - 57.0 °F 84% 30.03 in 10.0 mi Calm Calm - N/A   Clear
4:53 AM 61.0 °F - 57.0 °F 87% 30.03 in 10.0 mi Calm Calm - N/A   Clear
5:53 AM 59.0 °F - 55.9 °F 90% 30.04 in 10.0 mi Calm Calm - N/A   Clear
6:53 AM 59.0 °F - 57.0 °F 93% 30.04 in 10.0 mi SE 3.5 mph - N/A   Clear
7:53 AM 59.0 °F - 57.9 °F 96% 30.05 in 10.0 mi Calm Calm - N/A   Clear
8:53 AM 64.9 °F - 62.1 °F 90% 30.06 in 10.0 mi SE 3.5 mph - N/A   Clear
9:53 AM 71.1 °F - 62.1 °F 73% 30.07 in 10.0 mi SSE 9.2 mph - N/A   Clear
10:53 AM 75.9 °F - 57.9 °F 54% 30.07 in 10.0 mi South 8.1 mph - N/A   Clear
11:53 AM 79.0 °F - 57.0 °F 47% 30.05 in 10.0 mi SSE 9.2 mph - N/A   Clear
12:53 PM 80.1 °F 80.2 °F 55.9 °F 43% 30.03 in 10.0 mi SE 9.2 mph 17.3 mph N/A   Clear
1:53 PM 82.0 °F 81.4 °F 55.0 °F 39% 29.99 in 10.0 mi South 11.5 mph - N/A   Clear
2:53 PM 82.0 °F 81.4 °F 55.0 °F 39% 29.96 in 10.0 mi ESE 10.4 mph - N/A   Clear
3:53 PM 82.9 °F 81.8 °F 53.1 °F 36% 29.94 in 10.0 mi SSE 12.7 mph 16.1 mph N/A   Clear
4:53 PM 82.9 °F - 52.0 °F 34% 29.92 in 10.0 mi South 10.4 mph - N/A   Clear
5:53 PM 81.0 °F 80.5 °F 54.0 °F 39% 29.92 in 10.0 mi SSE 8.1 mph - N/A   Clear
6:53 PM 78.1 °F - 55.9 °F 46% 29.92 in 10.0 mi SE 6.9 mph - N/A   Clear
7:53 PM 73.9 °F - 57.0 °F 55% 29.92 in 10.0 mi SE 5.8 mph - N/A   Clear
8:53 PM 72.0 °F - 57.0 °F 59% 29.91 in 10.0 mi ESE 6.9 mph - N/A   Clear
9:53 PM 71.1 °F - 59.0 °F 66% 29.91 in 10.0 mi SE 6.9 mph - N/A   Clear
10:53 PM 71.1 °F - 60.1 °F 68% 29.91 in 10.0 mi SE 9.2 mph - N/A   Clear
11:53 PM 70.0 °F - 62.1 °F 76% 29.90 in 10.0 mi SE 6.9 mph - N/A   Clear